#timestamp,LO_Frequency,Hit,StdDev 
1554177615.5,286047001.3,N
1554177635.3,286046999.8,N
1554177655.2,286047000.5,N
1554177675.9,286047002.0,N
1554177695.7,286047001.8,N
1554177715.1,286047004.0,N
1554177735.9,286047004.0,N
1554177755.7,286047003.5,N
1554177775.5,286047004.2,N
1554177795.4,286047000.3,N
1554177815.2,286047000.0,N
1554177835.1,286046999.8,N
1554177836.0,286046999.8,N
1554177855.8,286047000.1,N
1554177875.6,286047002.6,N
1554177895.5,286047004.4,N
1554177915.3,286047004.1,N
1554177935.2,286046999.9,N
1554177955.9,286047000.0,N
1554177975.7,286047000.2,N
1554177995.6,286047000.4,N
1554178015.4,286047000.3,N
1554178035.2,286047000.3,N
1554178055.1,286047000.9,N
1554178056.0,286047000.9,N
1554178075.8,286047002.8,N
1554178095.7,286047001.6,N
1554178115.5,286047004.4,N
1554178135.3,286047002.9,N
1554178155.2,286047003.5,N
1554178175.0,286047005.9,Y
1554178175.9,286047005.9,P
1554178195.8,286047003.7,N
1554178215.6,286047002.4,N
1554178235.4,286047001.0,N
1554178255.3,286046998.1,N
1554178275.1,286046999.4,N
1554178276.0,286046999.4,N
1554178295.8,286046997.7,N
1554178315.7,286046999.5,N
1554178335.5,286046999.3,N
1554178355.3,286046998.8,N
1554178375.2,286046999.8,N
1554178395.0,286046999.9,N
1554178395.9,286046999.9,N
1554178415.8,286046999.9,N
1554178435.6,286046999.9,N
1554178455.4,286047003.6,N
1554178475.3,286047002.4,N
1554178495.1,286047002.5,N
1554178515.8,286047003.2,N
1554178535.7,286047003.1,N
1554178555.5,286047003.9,N
1554178575.4,286047004.0,N
1554178595.2,286047001.4,N
1554178615.0,286047001.3,N
1554178615.9,286047001.3,N
1554178635.8,286047004.3,N
1554178655.6,286046999.9,N
1554178675.4,286047000.0,N
1554178695.3,286047000.3,N
1554178715.1,286047002.6,N
1554178735.9,286047003.7,N
1554178755.7,286047003.9,N
1554178775.5,286047004.0,N
1554178795.4,286047003.8,N
1554178815.2,286047001.5,N
1554178835.0,286047002.6,N
1554178835.9,286047002.6,N
1554178855.8,286047001.3,N
1554178875.6,286047000.6,N
1554178895.5,286046999.7,N
1554178915.3,286047002.3,N
1554178935.1,286046999.8,N
1554178955.9,286046999.8,N
1554178975.7,286047002.1,N
1554178995.5,286047000.2,N
1554179015.4,286047001.5,N
1554179035.2,286047002.6,N
1554179055.1,286047004.7,Y
1554179056.0,286047004.7,P
1554179075.8,286047001.3,N
1554179095.6,286047002.4,N
1554179115.5,286046998.3,N
1554179135.3,286046998.3,N
1554179155.1,286046998.7,N
1554179175.2,286046999.4,N
1554179195.1,286046998.4,N
1554179196.0,286046998.4,N
1554179215.8,286047001.1,N
1554179235.6,286047000.2,N
1554179255.5,286047002.9,N
1554179275.3,286047005.0,N
1554179295.1,286047004.0,N
1554179315.9,286047001.1,N
1554179335.7,286046999.7,N
1554179355.6,286047000.1,N
1554179375.4,286047002.4,N
1554179395.2,286047002.3,N
1554179415.1,286047000.0,N
1554179416.0,286047000.0,N
1554179435.8,286046998.1,N
1554179455.6,286046998.5,N
1554179475.5,286046999.8,N
1554179495.3,286046999.9,N
1554179515.2,286047002.1,N
1554179535.9,286047004.4,N
1554179555.7,286047000.9,N
1554179575.6,286046998.4,N
1554179595.4,286046998.6,N
1554179615.2,286047001.2,N
1554179635.1,286047000.2,N
1554179636.0,286047000.2,N
1554179655.8,286047001.7,N
1554179675.7,286047002.4,N
1554179695.5,286046999.8,N
1554179715.3,286047002.7,N
1554179735.2,286047001.9,N
1554179755.9,286047002.6,N
1554179775.7,286047000.5,N
1554179795.6,286046999.4,N
1554179815.4,286046997.5,N
1554179835.2,286046997.4,N
1554179855.1,286046997.4,N
1554179856.0,286046997.4,N
1554179875.8,286046998.2,N
1554179895.7,286047000.5,N
1554179915.5,286047002.4,N
1554179935.3,286047001.1,N
1554179955.2,286047001.5,N
1554179975.0,286047001.1,N
1554179975.9,286047001.1,N
1554179995.8,286047000.4,N
1554180015.6,286046999.9,N
1554180035.4,286047002.6,N
1554180055.3,286047004.3,N
1554180075.1,286047000.2,N
1554180095.9,286047000.6,N
1554180115.7,286047002.6,N
1554180135.5,286047001.0,N
1554180155.4,286047000.4,N
1554180175.2,286047001.1,N
1554180195.0,286047000.3,N
1554180195.9,286047000.3,N
1554180215.8,286046998.5,N
1554180235.6,286046999.9,N
1554180255.5,286047000.7,N
1554180275.3,286046999.4,N
1554180295.1,286046998.2,N
1554180315.9,286047000.9,N
1554180335.7,286046998.5,N
1554180355.6,286047001.2,N
1554180375.4,286046998.8,N
1554180395.2,286046998.1,N
1554180415.1,286047001.5,N
1554180416.0,286047001.5,N
1554180435.8,286047001.4,N
1554180455.7,286047001.8,N
1554180475.5,286047004.0,N
1554180495.3,286047003.1,N
1554180515.2,286047002.6,N
1554180535.0,286046998.1,N
1554180535.9,286046998.1,N
1554180555.7,286046999.4,N
1554180575.6,286047001.1,N
1554180595.4,286046998.7,N
1554180615.3,286046999.0,N
1554180635.1,286046998.4,N
1554180655.8,286046998.9,N
1554180675.7,286047001.0,N
1554180695.5,286047000.2,N
1554180715.3,286046999.9,N
1554180735.2,286047000.2,N
1554180755.0,286046998.3,N
1554180755.9,286046998.3,N
1554180775.8,286047004.3,N
1554180795.6,286047001.3,N
1554180815.4,286046999.9,N
1554180835.3,286047001.9,N
1554180855.1,286047004.2,N
1554180875.8,286047001.9,N
1554180895.7,286047003.4,N
1554180915.5,286047002.3,N
1554180935.4,286046999.8,N
1554180955.2,286047001.9,N
1554180975.0,286047000.0,N
1554180975.9,286047000.0,N
1554180995.8,286047002.2,N
1554181015.6,286047002.5,N
1554181035.4,286047003.4,N
1554181055.3,286047003.3,N
1554181075.1,286047001.7,N
1554181095.9,286047004.1,N
1554181115.7,286047003.5,N
1554181135.5,286047003.8,N
1554181155.4,286047003.5,N
1554181175.2,286047003.3,N
1554181195.0,286047003.1,N
1554181195.9,286047003.1,N
